Home   Weather   Kathmandu   Past weeks

Flag for Nepal Past Weather in Kathmandu, Nepal — Yesterday and Last 2 Weeks

Now
70 °F

Partly cloudy.


Feels Like: 70 °F
Forecast: 62 / 80 °F
Wind: No wind

Location: Kathmandu Airport

Current Time: Oct 2, 2016 at 2:28:01 AM

Latest Report: Oct 2, 2016 at 1:35 AM


Visibility: 4 mi

Pressure: 30.09 "Hg (25.86 "Hg at 1305m altitude)

Humidity: 94%

Dew Point: 68 °F

Location of KathmanduLocation

Past Weather in Kathmandu — Graph

°F

Kathmandu Temperature Yesterday

Maximum temperature yesterday: 81 °F (at 11:35 AM)
Minimum temperature yesterday: 68 °F (at 3:35 AM)
Average temperature yesterday: 72 °F

High & Low Weather Summary for the Past Weeks

 TemperatureHumidityPressure
High84 °F (Sep 30, 12:35 PM)100% (Sep 17, 6:05 AM)30.12 "Hg (Sep 17, 6:05 AM)
Low50 °F (Sep 22, 3:35 AM)54% (Sep 22, 12:05 PM)29.83 "Hg (Sep 19, 3:05 PM)
Average72 °F83%29.98 "Hg
* Reported Sep 17 12:05 AM — Oct 2 12:35 AM, Kathmandu, Weather by CustomWeather, © 2016

Note: Actual official high and low records may vary slightly from our data, if they occured in-between our weather recording intervals... More about our weather records

Advertising

Kathmandu Weather History for the Previous 24 Hours

Scroll right to see more
 ConditionsComfort  
Time TempWeatherWind HumidityBarometerVisibility
12:35 AM
Sun, Oct 2
70 °FPartly cloudy.No wind94%30.09 "Hg4 mi
12:05 AM70 °FPartly cloudy.No wind94%30.09 "Hg4 mi
11:35 PM
Sat, Oct 1
70 °FPassing clouds.3 mph94%30.12 "Hg4 mi
11:05 PM70 °FPassing clouds.3 mph94%30.12 "Hg4 mi
10:35 PM70 °FPassing clouds.3 mph94%30.09 "Hg4 mi
10:05 PM70 °FPassing clouds.No wind94%30.09 "Hg4 mi
9:35 PM70 °FPassing clouds.6 mph94%30.09 "Hg4 mi
9:05 PM72 °FPassing clouds.2 mph88%30.07 "Hg4 mi
8:35 PM72 °FPassing clouds.6 mph88%30.07 "Hg4 mi
8:05 PM72 °FPassing clouds.6 mph88%30.07 "Hg4 mi
7:35 PM72 °FPassing clouds.2 mph88%30.04 "Hg4 mi
7:05 PM72 °FPassing clouds.6 mph88%30.04 "Hg4 mi
6:35 PM73 °FPassing clouds.6 mph83%30.01 "Hg4 mi
6:05 PM73 °FScattered clouds.7 mph83%30.01 "Hg5 mi
5:35 PM75 °FScattered clouds.6 mph78%30.01 "Hg5 mi
5:05 PM75 °FBroken clouds.10 mph78%29.98 "Hg5 mi
4:35 PM75 °FBroken clouds.5 mph78%29.98 "Hg5 mi
4:05 PM77 °FBroken clouds.5 mph79%29.98 "Hg5 mi
3:35 PM77 °FBroken clouds.3 mph79%29.98 "Hg5 mi
3:05 PM75 °FDrizzle. Broken clouds.3 mph83%29.98 "Hg5 mi
2:35 PM72 °FLots of rain. Broken clouds.6 mph88%29.98 "Hg4 mi
2:05 PM77 °FRain. Broken clouds.7 mph74%29.98 "Hg4 mi
1:05 PM81 °FScattered clouds.2 mph66%30.01 "HgN/A
12:35 PM81 °FScattered clouds.5 mph66%30.01 "HgN/A
12:05 PM81 °FScattered clouds.3 mph66%30.04 "Hg5 mi
11:35 AM81 °FBroken clouds.3 mph66%30.04 "Hg5 mi
11:05 AM77 °FPartly sunny.3 mph74%30.07 "Hg5 mi
10:35 AM77 °FPartly sunny.2 mph74%30.07 "Hg5 mi
9:35 AM73 °FBroken clouds.No wind83%30.07 "Hg4 mi
9:05 AM72 °FBroken clouds.No wind88%30.09 "Hg4 mi
8:35 AM70 °FBroken clouds.No wind94%30.09 "Hg4 mi
8:05 AM68 °FBroken clouds.3 mph94%30.09 "Hg4 mi
7:35 AM68 °FLight rain. Broken clouds.No wind94%30.07 "Hg4 mi
7:05 AM68 °FLight rain. Broken clouds.No wind94%30.07 "Hg4 mi
6:35 AM68 °FThunderstorms. Partly cloudy.2 mph94%30.07 "Hg3 mi
6:05 AM68 °FRain. Partly cloudy.1 mph94%30.04 "Hg4 mi
5:35 AM68 °FThunderstorms. Mostly cloudy.6 mph100%30.01 "Hg4 mi
4:35 AM68 °FThunderstorms. Mostly cloudy.7 mph100%30.01 "Hg4 mi
3:35 AM68 °FThunderstorms. Partly cloudy.No wind100%30.01 "Hg4 mi
2:35 AM70 °FThunderstorms. Partly cloudy.2 mph94%30.01 "Hg4 mi
Weather by CustomWeather, © 2016

See weather overviewHow to use our weather pages